Location: Unspecified
(0.0000°N, 0.0000°E)
Time: 11:18:35
(UTC+00:00)

Courier 1B - Pass Details

Date: 19 November 2019
Orbit: 963 x 1209 km, 28.3° (Epoch: 14 December)

Event Time Altitude Azimuth Distance (km) Brightness Sun altitude
Rises 13:46:44 0° 298° (WNW) 3,654 10.7 54.5°
Reaches altitude 10° 13:49:19 10° 297° (WNW) 2,726 10.2 53.9°
Maximum altitude 13:55:56 80° 210° (SSW) 1,033 9.0 52.5°
Drops below altitude 10° 14:02:58 10° 124° (ESE) 2,888 9.9 51.1°
Sets 14:05:48 0° 122° (ESE) 3,884 10.5 50.5°
